Location: Vancouver
(49.2827°N, 123.1207°W)
Time: 00:28:44
(UTC-07:00)

ISS - Pass Details

Date: 30 June 2024
Orbit: 410 x 424 km, 51.6° (Epoch: 13 July)

Event Time Altitude Azimuth Distance (km) Brightness Sun altitude
Exits shadow 03:18:54 19° 239° (WSW) 1,048 -2.3 -12.6°
Maximum altitude 03:21:08 73° 158° (SSE) 437 -3.8 -12.4°
Drops below altitude 10° 03:24:28 10° 72° (ENE) 1,495 -0.2 -12.2°
Sets 03:26:35 0° 71° (ENE) 2,363 0.9 -12.0°
